Dewpoint
-14 -15 -15 -14 -14 -13 -12 -10 -9 -8 -8 -7 -7 -6 -6 -6 -7 -9 -10 -7 -5 -4 -7 2 9 10 8 7 6 4 3 8 2 4 5 5 8 10 10 10 12 13 14 14 13
-12 -13 -14 -14 -15 -15 -14 -13 -13 -11 -10 -9 -8 -8 -7 -6 -7 -8 -10 -7 -6 -8 -10 4 6 5 3 3 -1 -3 -0 1 1 1 4 4 6 9 9 10 11 14 14 14 13
-9 -10 -10 -12 -13 -14 -16 -16 -15 -14 -13 -11 -10 -9 -8 -7 -6 -5 -6 -7 -6 -10 -7 1 2 1 -2 -2 -6 -4 -2 1 -0 -1 3 4 6 7 7 9 13 14 15 14 14
-12 -11 -10 -10 -10 -11 -13 -15 -16 -15 -15 -14 -12 -11 -9 -9 -3 -3 -6 -6 -7 -9 -5 -1 1 0 -4 -4 -5 -4 -5 1 -0 0 2 4 6 6 8 8 10 13 14 15 14
-12 -13 -12 -12 -12 -11 -10 -12 -14 -15 -16 -16 -15 -13 -12 -1 -4 -6 -4 -7 -12 -15 -2 -2 -1 -1 -4 -6 -5 -5 -3 1 1 1 0 2 4 5 5 9 11 12 13 15 15
-12 -12 -12 -13 -13 -12 -12 -11 -11 -13 -15 -16 -16 -16 -14 -6 -9 -3 -3 -5 -4 -8 -2 -2 -3 -4 -6 -7 -5 -5 -4 1 1 2 2 0 2 4 8 9 11 12 12 12 14
-16 -15 -14 -13 -13 -13 -13 -13 -12 -11 -12 -15 -17 -18 -6 -6 -7 -6 -4 0 -1 -3 -1 -3 -4 -8 -8 -7 -6 -3 -2 1 2 3 3 3 4 5 7 9 11 12 12 11 12
-14 -15 -16 -16 -15 -13 -13 -13 -12 -12 -11 -14 -18 -18 -5 -9 -7 -7 -7 -2 -1 -3 -4 -3 -7 -8 -9 -9 -6 -2 -1 3 3 3 5 7 7 4 6 9 10 11 11 11 12
-14 -14 -14 -14 -16 -17 -13 -14 -12 -12 -12 -13 -16 -11 -3 -6 -6 -8 -8 -2 -2 -2 -4 -5 -11 -11 -10 -8 -4 -3 3 4 5 2 6 9 11 5 6 8 9 10 11 11 11
-16 -17 -16 -16 -15 -17 -14 -13 -11 -13 -10 -13 -10 3 1 -6 -7 -10 -8 -4 -3 -3 -3 -7 -11 -10 -9 -6 -2 -1 2 5 6 3 7 10 11 8 6 7 8 9 10 10 11
-15 -16 -17 -18 -16 -15 -10 -3 2 5 -1 -1 -5 -7 -11 -5 -8 -9 -9 -7 -5 -5 -4 -7 -9 -7 -6 -6 -5 -4 5 7 4 2 3 10 9 9 5 6 7 8 9 9 10
-14 -15 -17 -18 -17 -10 -3 -0 -6 -7 -7 -5 -0 -2 -4 -8 -5 -7 -9 -6 -6 -8 -10 -10 -9 -9 -7 -6 -6 -5 -2 5 4 3 2 1 8 7 5 4 5 6 7 7 8
-13 -14 -15 -18 -17 -4 -6 -5 -7 -8 -7 -8 -9 -6 -4 -7 -6 -7 -9 -6 -6 -8 -11 -11 -11 -10 -6 -4 -4 -5 -3 -1 3 1 1 -1 4 5 7 4 4 5 6 6 6
-14 -15 -15 -16 -7 -9 -4 -4 -7 -8 -4 -6 -9 -10 -11 -7 -8 -8 -9 -6 -7 -7 -9 -12 -13 -11 -8 -5 -4 -2 -5 -3 -1 2 5 1 2 3 3 7 5 5 5 5 5
-13 -14 -15 -15 -12 -11 -5 -7 -7 -7 2 -7 -9 -11 -12 -11 -9 -9 -8 -6 -6 -7 -9 -9 -12 -11 -8 -6 -6 -4 -6 -4 -4 0 2 3 3 2 0 6 7 5 5 5 4
-12 -14 -14 -17 -4 -7 -6 -7 -7 -3 2 -6 -9 -10 -11 -13 -11 -10 -8 -6 -7 -7 -8 -10 -13 -13 -11 -9 -7 -6 -6 -4 -4 -3 3 1 2 1 1 2 5 5 5 5 5
-12 -13 -14 -15 -13 -6 -6 -6 -4 -1 -6 -6 -6 -8 -10 -12 -13 -12 -8 -4 -3 -2 -2 -6 -9 -13 -14 -10 -8 -7 -5 -0 4 3 1 0 0 2 -3 -2 -1 2 4 5 5
-12 -14 -14 -7 -3 -5 -7 -6 -0 -4 -5 -8 -8 -8 -8 -11 -12 -13 -9 -6 -5 -4 -3 -2 -5 -11 -14 -12 -8 -5 -5 -0 6 4 0 -1 2 -0 -4 -4 -3 1 2 4 5
-10 -10 -5 -6 -5 -5 -6 -4 -3 -3 -6 -7 -8 -7 -7 -8 -10 -12 -11 -8 -6 -6 -2 -5 -6 -14 -14 -15 -12 -6 -3 -5 -2 -0 1 -1 -1 -3 -3 -3 -4 -4 1 3 4
-6 -2 -5 -8 -7 -4 -4 -4 -6 -8 -8 -9 -5 -6 -6 -7 -8 -10 -9 -10 -9 -7 -7 -6 -6 -12 -15 -14 -13 -9 -7 -2 -2 5 6 1 3 1 4 0 -2 -4 -6 3 3
-1 -3 -7 -7 -5 -5 -3 -6 -9 -10 -9 -8 -7 -6 -6 -7 -7 -8 -9 -8 -9 -9 -7 -6 -6 -8 -11 -11 -12 -12 -7 -4 -4 -1 3 4 1 3 5 1 -0 -2 -6 -4 1
-2 -4 -6 -5 -5 -7 -6 -8 -9 -11 -12 -11 -10 -8 -7 -6 -4 -6 -7 -9 -9 -9 -7 -6 -6 -3 -9 -14 -13 -13 -9 -6 1 5 1 3 1 -5 0 -1 -2 -5 -6 -6 -4
-2 -4 -7 -6 -5 -9 -11 -11 -11 -10 -11 -11 -10 -11 -10 -7 -3 -4 -5 -9 -10 -9 -6 -7 -3 -1 -5 -10 -12 -11 -12 -8 -6 -2 4 3 1 -4 -4 -4 -3 -3 -4 -4 -4
-1 -3 -7 -8 -10 -10 -10 -11 -11 -12 -12 -11 -8 -10 -9 -8 -7 -4 -4 -6 -10 -10 -7 -5 -5 0 -2 -5 -10 -8 -12 -12 -9 -1 -1 -1 1 1 -0 -2 -3 -3 -4 -5 -5
-2 0 -1 -1 -3 -4 -4 -10 -5 -3 -6 -7 -6 -7 -6 -5 -7 -6 -5 -5 -8 -8 -7 -7 1 -1 -4 -7 -9 -11 -11 -11 -8 -6 -4 -4 -1 -0 1 1 -2 -3 -4 -4 -4
-1 1 2 -1 -6 -5 -5 -5 -5 -5 -6 -5 -5 -6 -5 -5 -6 -4 -1 -4 -3 -5 -7 -6 2 -1 -2 -5 -7 -8 -10 -11 -11 -11 -9 -8 -5 -5 -4 -6 -4 -2 -2 -3 -3
1 2 2 -2 -5 -7 -6 -6 -9 -10 -10 -6 -5 -1 1 -0 -2 -2 -2 -2 -2 1 1 -3 -1 4 3 -3 -5 -4 -7 -9 -8 -9 -10 -6 -4 -6 -4 -1 -2 -4 -2 -1 -3
Wind_Speed
15 15 16 16 16 16 16 16 16 16 16 17 17 17 17 19 17 19 21 15 15 16 15 9 10 15 15 19 19 18 6 10 14 18 13 13 11 17 17 14 17 10 32 31 28
17 16 16 17 17 17 17 17 17 17 17 17 17 17 18 20 21 25 21 18 18 19 17 13 14 12 18 20 21 11 8 10 17 15 14 13 16 16 15 14 16 32 30 28 27
17 19 19 18 19 19 18 18 18 18 17 17 16 17 16 17 22 20 15 22 22 21 17 15 15 16 17 23 18 10 8 16 16 16 15 17 16 14 15 14 29 30 31 29 26
17 18 19 21 21 21 20 19 19 18 18 17 16 16 15 12 6 3 2 10 18 20 17 18 18 18 18 20 4 12 7 17 17 13 12 15 12 10 15 20 22 26 30 29 25
18 18 18 19 21 22 22 20 19 18 18 17 16 15 14 11 27 19 16 13 15 21 21 21 20 18 19 19 3 11 12 15 13 16 14 12 13 12 11 18 22 25 27 32 29
20 19 19 20 20 20 22 22 21 19 18 17 16 15 14 19 13 11 10 11 12 20 22 22 18 19 22 21 9 5 8 16 18 13 13 14 12 14 15 19 23 25 23 22 31
21 21 21 21 21 20 21 22 21 19 17 16 15 14 14 26 7 12 12 14 13 19 22 22 20 19 16 14 12 11 14 11 18 14 7 16 14 14 19 20 22 22 21 21 20
23 23 22 22 22 22 21 20 20 18 16 15 13 12 14 16 19 19 12 16 15 17 21 18 19 21 21 21 11 16 14 14 17 13 13 13 10 15 19 21 20 21 21 20 20
23 24 23 22 22 23 21 18 17 16 14 12 9 8 20 10 21 19 19 18 16 17 18 18 19 21 20 15 14 16 13 16 2 14 17 9 2 16 21 21 21 21 21 20 20
25 24 25 23 22 22 18 15 12 13 12 9 12 9 25 20 16 19 20 19 18 17 18 20 17 16 16 15 15 19 16 16 16 14 20 19 13 18 24 23 23 24 23 23 23
27 26 25 23 20 16 12 9 6 1 13 17 14 19 18 14 15 19 22 21 19 22 19 25 14 18 22 23 24 20 25 25 14 10 15 25 18 21 27 26 25 25 25 25 24
29 28 26 22 16 8 11 10 5 9 14 23 34 29 26 14 12 19 24 25 20 19 20 16 22 23 24 24 24 22 17 25 18 26 14 13 25 26 21 24 27 26 26 26 24
29 28 27 24 9 7 11 8 9 13 10 20 35 36 33 20 21 23 29 29 20 22 24 24 23 23 24 25 23 23 20 16 17 16 16 9 13 17 25 24 25 26 26 25 27
30 28 27 27 4 9 6 4 10 11 6 10 17 29 35 30 23 24 29 30 19 23 23 22 23 25 25 25 23 22 20 12 13 12 12 15 12 14 15 22 19 25 28 27 28
29 27 27 14 20 10 10 15 13 7 6 7 17 10 29 37 11 31 32 32 26 19 21 24 23 25 24 27 24 21 20 13 18 13 14 17 11 8 13 17 22 24 28 29 28
29 26 26 15 16 13 15 16 9 6 10 8 11 14 24 30 36 24 30 32 28 24 21 24 27 26 25 26 25 23 19 19 18 14 12 14 11 8 16 17 21 25 28 29 31
29 26 21 20 14 8 11 10 6 10 10 13 20 17 24 25 28 25 27 26 23 23 22 22 25 24 25 24 27 25 20 13 15 13 14 17 17 14 7 15 14 19 27 29 31
29 27 20 18 15 10 10 9 13 11 26 4 17 18 23 23 25 28 26 25 27 25 18 20 19 27 21 30 23 22 22 14 17 11 15 16 14 12 11 12 6 26 28 32 32
31 24 22 14 16 11 14 14 8 18 12 18 13 15 20 19 18 26 29 26 28 29 23 19 23 21 27 24 23 23 23 23 24 16 12 14 17 17 11 10 11 14 26 29 32
32 26 23 14 14 13 12 23 20 24 16 21 19 17 18 23 26 25 26 26 29 30 28 23 15 22 25 20 23 25 18 22 16 20 18 17 12 11 14 13 13 10 15 28 30
22 15 16 8 12 18 15 22 24 41 34 13 19 19 18 19 23 19 28 22 27 27 28 27 21 18 24 23 25 18 23 23 20 17 16 14 13 17 13 13 13 13 21 21 28
16 8 8 8 13 14 16 24 30 31 32 23 19 20 19 20 20 20 25 27 28 27 30 26 18 17 20 25 25 24 26 26 14 17 15 14 14 15 17 17 19 24 25 17 14
17 25 25 16 12 13 19 24 27 27 26 23 22 19 20 21 18 16 19 24 26 23 26 22 21 16 21 17 26 25 23 25 22 17 19 16 15 17 13 5 22 18 16 4 3
11 7 13 23 21 20 21 17 20 33 26 20 16 18 20 21 20 15 20 14 16 19 6 23 22 20 17 19 18 23 24 24 24 16 16 18 19 18 16 9 10 12 10 3 4
13 11 17 10 11 16 14 19 14 17 5 11 15 18 19 19 20 21 20 20 10 5 5 8 19 21 27 28 25 24 24 26 26 22 21 18 22 16 14 8 13 18 17 13 11
17 12 19 27 17 14 12 9 12 16 15 13 14 17 14 20 20 17 17 18 14 5 14 14 14 17 24 25 28 27 23 27 27 26 24 23 22 18 21 23 16 13 16 14 11
12 17 14 17 15 13 11 15 15 14 18 12 13 14 12 17 23 24 23 23 18 15 17 19 14 15 19 22 23 23 26 23 24 24 23 22 19 18 18 11 9 10 15 20 19
Wind_Direction
319 316 316 314 309 308 307 307 307 306 306 306 307 307 306 303 298 290 270 261 255 262 261 269 253 267 274 274 260 261 237 266 69 91 106 120 94 77 91 119 141 113 141 146 149
317 313 311 309 307 304 303 302 302 301 301 302 302 302 304 304 299 280 269 247 250 250 251 231 249 259 276 274 273 260 273 53 87 110 107 115 113 127 126 119 114 115 132 145 151
315 313 312 308 305 303 300 299 298 297 298 298 298 299 301 308 309 290 248 234 240 246 237 235 247 266 269 272 283 293 56 89 71 103 118 101 126 142 142 128 129 135 146 152 157
322 311 308 307 306 304 300 297 294 295 294 294 294 293 294 297 283 33 277 236 237 241 228 229 238 255 265 265 234 274 78 89 114 106 141 120 143 122 68 126 135 143 153 155 160
329 324 314 307 304 303 299 296 292 290 290 290 289 287 288 261 252 269 263 274 257 225 215 218 230 241 260 274 109 274 111 111 104 97 94 151 131 103 106 122 135 148 155 163 166
331 327 323 317 310 304 298 294 290 287 286 286 284 279 274 260 258 243 254 255 251 212 212 217 227 236 268 291 277 218 142 131 129 121 158 108 126 114 119 134 141 152 160 170 168
331 328 326 323 318 310 301 294 289 286 285 282 280 272 255 242 228 237 242 233 217 214 213 218 226 243 246 271 252 257 202 157 132 151 145 136 165 116 139 143 149 160 168 172 177
331 329 328 326 319 315 306 297 288 283 281 281 275 264 256 260 240 232 237 220 223 217 217 221 228 246 265 276 281 239 206 188 150 175 136 101 108 130 150 151 160 167 175 177 180
332 330 328 328 322 318 311 300 288 279 275 271 264 239 259 254 223 220 220 214 209 209 214 220 229 237 247 255 254 226 225 134 123 187 115 124 1 149 163 163 168 175 179 182 186
335 332 329 329 325 323 321 305 287 270 262 255 226 264 253 227 214 211 208 208 202 203 208 215 226 229 232 235 230 213 209 138 176 198 137 119 185 239 177 173 176 181 183 188 190
337 334 331 332 327 332 343 331 301 247 222 221 212 212 275 216 223 202 200 202 200 204 204 202 216 215 222 229 240 247 137 186 251 211 185 163 176 213 185 178 179 185 185 190 196
333 335 333 332 329 354 344 329 13 316 291 252 251 248 252 208 195 204 191 200 199 205 204 190 221 220 221 221 238 250 249 180 184 228 209 193 184 178 181 188 181 186 188 193 195
329 331 332 332 327 0 317 301 328 327 272 267 234 228 224 227 211 201 191 200 199 210 204 217 214 221 226 234 229 243 249 220 163 185 199 227 207 183 178 189 188 187 190 195 194
325 329 330 330 334 304 346 334 326 323 279 250 205 224 217 219 226 219 200 200 206 213 217 220 228 211 226 230 237 242 244 257 198 187 224 210 248 179 193 177 189 191 186 194 196
322 324 321 338 311 296 316 323 315 297 279 142 171 200 195 203 194 214 199 207 220 206 210 220 223 219 215 228 231 243 251 239 255 194 239 183 232 221 208 189 183 190 196 193 193
318 318 315 317 290 293 309 304 307 232 238 178 141 183 191 198 220 190 207 204 218 237 220 230 219 233 226 218 233 237 241 242 242 247 238 231 228 241 195 194 185 183 189 195 189
314 311 302 295 261 281 311 301 224 232 229 215 165 189 196 194 208 226 199 194 212 214 229 219 235 220 233 231 223 230 232 235 235 228 242 236 209 235 294 169 188 174 183 194 191
315 312 300 288 277 281 277 246 237 241 236 333 175 189 208 193 205 217 190 209 207 218 218 219 216 228 203 231 225 222 225 231 227 226 234 235 249 238 215 150 186 173 184 187 195
322 318 292 265 248 235 237 222 222 239 284 236 233 200 198 204 197 210 224 206 209 217 221 213 227 207 231 217 232 224 222 236 248 245 250 241 217 233 207 214 182 180 181 183 191
325 319 291 226 208 223 234 234 230 269 287 325 286 238 226 203 206 196 216 207 217 210 229 239 222 221 212 214 226 236 222 230 235 246 248 242 252 195 200 208 213 190 234 181 187
329 303 273 187 219 230 238 242 249 264 281 289 294 281 267 230 214 205 215 215 211 218 212 235 244 227 210 199 218 212 232 233 233 236 256 254 262 199 162 194 191 196 234 213 188
313 274 217 235 247 237 242 244 261 268 270 271 264 280 290 299 298 243 214 216 211 208 215 218 235 247 230 204 207 225 221 233 229 228 246 266 263 270 161 177 186 203 215 222 213
310 284 269 262 253 252 251 250 245 253 254 262 267 268 274 281 296 276 283 219 215 210 211 208 224 237 244 241 196 213 228 228 236 231 225 237 258 269 280 263 176 187 229 155 149
300 290 283 222 240 263 283 282 247 236 250 260 279 264 272 270 264 276 294 287 217 218 359 219 215 225 237 228 202 200 222 232 233 233 237 247 241 247 260 154 145 183 193 202 236
298 291 333 295 323 319 302 262 303 294 268 279 254 259 264 271 263 257 266 278 257 233 266 236 232 227 227 250 239 203 210 221 236 235 234 237 245 252 261 245 198 200 187 219 206
294 316 321 297 297 286 282 289 280 281 292 273 235 256 261 251 263 295 335 275 275 294 231 238 246 252 236 233 247 257 228 213 224 235 246 244 252 253 230 255 248 182 187 200 224
301 312 311 304 299 285 335 329 262 257 255 299 302 318 293 3 340 321 306 297 296 294 294 240 228 238 234 232 247 248 244 230 214 226 237 241 246 253 261 267 269 242 233 202 213
Height
1531 1528 1526 1524 1522 1520 1518 1516 1515 1513 1511 1509 1507 1505 1504 1501 1500 1497 1494 1496 1496 1496 1496 1497 1496 1494 1493 1490 1484 1479 1480 1499 1465 1473 1484 1484 1486 1492 1497 1502 1506 1510 1519 1530 1537
1528 1526 1524 1522 1519 1518 1516 1514 1512 1511 1509 1507 1505 1504 1501 1498 1495 1490 1490 1491 1493 1494 1495 1497 1496 1495 1488 1482 1474 1468 1467 1465 1461 1470 1478 1484 1490 1495 1498 1504 1508 1516 1526 1533 1539
1526 1523 1521 1519 1517 1515 1513 1512 1510 1508 1507 1505 1504 1502 1500 1498 1492 1482 1482 1486 1489 1491 1493 1496 1495 1493 1487 1477 1468 1464 1465 1461 1468 1474 1480 1487 1492 1492 1496 1501 1509 1519 1527 1534 1539
1524 1521 1519 1516 1514 1512 1511 1509 1507 1506 1504 1503 1501 1500 1499 1498 1492 1481 1483 1485 1486 1488 1490 1493 1493 1492 1483 1474 1467 1468 1465 1465 1472 1477 1480 1485 1490 1491 1494 1500 1508 1518 1527 1535 1539
1522 1519 1516 1514 1511 1509 1507 1505 1504 1502 1501 1500 1499 1497 1497 1495 1484 1483 1482 1483 1483 1484 1486 1490 1490 1489 1480 1470 1467 1464 1464 1467 1473 1478 1483 1485 1489 1493 1500 1504 1512 1519 1526 1531 1536
1520 1517 1514 1511 1508 1506 1503 1501 1500 1499 1498 1496 1495 1495 1494 1491 1480 1479 1480 1480 1480 1481 1485 1487 1487 1486 1479 1472 1466 1463 1465 1467 1473 1482 1483 1487 1493 1496 1503 1508 1514 1520 1525 1528 1531
1519 1515 1512 1509 1505 1502 1499 1496 1495 1494 1494 1493 1492 1491 1489 1480 1478 1479 1479 1479 1479 1480 1483 1485 1486 1484 1480 1473 1467 1465 1466 1466 1471 1479 1481 1487 1491 1499 1504 1510 1516 1521 1524 1527 1530
1517 1513 1510 1506 1502 1498 1495 1492 1490 1489 1489 1488 1488 1488 1480 1472 1473 1475 1476 1477 1478 1480 1482 1484 1485 1484 1479 1473 1467 1464 1462 1474 1467 1475 1480 1488 1504 1498 1505 1510 1515 1519 1522 1525 1529
1515 1511 1507 1503 1499 1495 1491 1488 1485 1485 1484 1484 1485 1484 1472 1466 1467 1469 1473 1473 1475 1477 1480 1482 1483 1482 1480 1477 1472 1463 1476 1472 1480 1470 1477 1488 1507 1498 1501 1507 1512 1516 1520 1523 1527
1512 1509 1504 1501 1496 1492 1487 1484 1481 1480 1480 1481 1482 1487 1463 1460 1462 1465 1469 1471 1472 1475 1478 1480 1480 1478 1476 1474 1485 1469 1469 1473 1480 1471 1472 1495 1509 1496 1496 1501 1506 1510 1515 1519 1523
1510 1506 1502 1498 1494 1491 1486 1481 1482 1480 1478 1469 1462 1460 1454 1455 1458 1460 1465 1468 1469 1471 1471 1474 1478 1476 1470 1465 1455 1449 1464 1486 1470 1465 1467 1488 1498 1494 1488 1490 1498 1503 1508 1513 1517
1508 1504 1500 1496 1493 1490 1488 1485 1485 1485 1473 1463 1459 1457 1453 1452 1454 1456 1461 1464 1464 1465 1467 1469 1469 1461 1460 1457 1454 1452 1457 1466 1465 1465 1464 1461 1476 1472 1478 1481 1485 1494 1501 1506 1512
1507 1503 1498 1493 1491 1490 1489 1488 1486 1484 1474 1448 1443 1445 1447 1449 1448 1450 1455 1458 1458 1461 1459 1459 1457 1458 1455 1453 1455 1451 1451 1451 1461 1458 1456 1458 1469 1467 1468 1475 1478 1484 1493 1499 1503
1505 1501 1497 1491 1492 1487 1486 1487 1486 1484 1473 1432 1425 1429 1440 1444 1443 1444 1449 1454 1452 1455 1454 1456 1448 1451 1454 1453 1449 1457 1438 1439 1448 1462 1481 1455 1486 1462 1460 1465 1471 1476 1483 1491 1497
1503 1500 1495 1497 1490 1487 1487 1486 1484 1483 1476 1399 1412 1418 1425 1432 1433 1437 1441 1448 1446 1445 1449 1450 1447 1445 1451 1449 1444 1449 1436 1441 1443 1450 1456 1461 1476 1458 1452 1459 1461 1467 1474 1482 1490
1500 1497 1493 1493 1490 1484 1486 1485 1484 1480 1460 1406 1407 1414 1420 1426 1429 1428 1435 1444 1445 1442 1439 1439 1437 1437 1438 1441 1440 1439 1441 1440 1441 1447 1474 1455 1464 1455 1450 1444 1447 1455 1465 1473 1481
1496 1493 1491 1488 1485 1484 1486 1485 1478 1463 1402 1397 1406 1409 1412 1417 1424 1423 1429 1435 1441 1452 1447 1438 1435 1431 1434 1438 1437 1439 1447 1472 1478 1471 1476 1443 1456 1449 1432 1429 1437 1446 1457 1466 1473
1492 1488 1483 1482 1481 1483 1486 1482 1471 1419 1415 1381 1389 1400 1410 1408 1416 1418 1421 1430 1430 1430 1438 1445 1452 1429 1425 1432 1437 1437 1442 1461 1489 1479 1467 1438 1460 1442 1426 1429 1435 1440 1448 1457 1466
1488 1482 1477 1477 1479 1482 1482 1468 1436 1423 1397 1393 1389 1395 1404 1401 1405 1414 1411 1419 1418 1422 1434 1433 1436 1418 1420 1424 1427 1434 1445 1433 1448 1440 1456 1441 1432 1424 1420 1425 1430 1436 1442 1449 1457
1486 1479 1469 1469 1475 1477 1473 1452 1431 1413 1405 1405 1403 1388 1395 1396 1401 1405 1404 1401 1411 1413 1415 1416 1432 1413 1416 1422 1423 1426 1427 1449 1439 1474 1477 1447 1439 1444 1429 1428 1429 1434 1439 1443 1449
1489 1482 1468 1469 1472 1471 1458 1447 1438 1426 1428 1423 1411 1400 1389 1385 1387 1391 1398 1397 1398 1404 1410 1412 1415 1412 1408 1417 1427 1430 1431 1427 1430 1439 1459 1465 1443 1413 1419 1422 1425 1431 1435 1436 1442
1492 1482 1467 1469 1468 1458 1450 1448 1442 1427 1424 1418 1413 1407 1404 1397 1394 1382 1385 1385 1387 1394 1402 1404 1411 1419 1407 1399 1407 1413 1421 1422 1436 1453 1435 1439 1437 1399 1406 1414 1420 1425 1428 1431 1435
1492 1477 1463 1465 1459 1449 1443 1437 1434 1428 1423 1420 1413 1410 1408 1407 1409 1387 1376 1371 1377 1382 1391 1396 1409 1425 1420 1401 1397 1413 1412 1412 1416 1423 1439 1454 1442 1403 1405 1407 1413 1420 1426 1430 1435
1496 1471 1454 1455 1455 1450 1440 1430 1423 1421 1418 1416 1417 1414 1413 1410 1405 1400 1387 1371 1371 1375 1383 1386 1396 1409 1416 1410 1396 1412 1413 1410 1415 1429 1433 1429 1428 1413 1409 1409 1415 1420 1425 1429 1433
1496 1483 1477 1465 1455 1449 1442 1434 1430 1425 1420 1421 1423 1420 1420 1419 1409 1403 1392 1381 1373 1379 1383 1385 1398 1393 1396 1392 1392 1393 1404 1409 1413 1411 1426 1420 1420 1411 1408 1409 1412 1416 1422 1428 1432
1498 1493 1483 1470 1460 1456 1446 1442 1443 1436 1429 1422 1424 1421 1419 1419 1413 1410 1408 1391 1387 1384 1385 1384 1398 1396 1398 1392 1393 1395 1389 1395 1401 1406 1408 1411 1412 1402 1405 1406 1408 1413 1419 1424 1428
1498 1495 1490 1472 1459 1451 1445 1442 1438 1436 1432 1431 1431 1431 1427 1426 1425 1425 1423 1416 1411 1408 1398 1388 1391 1401 1404 1395 1397 1405 1388 1385 1391 1394 1401 1414 1404 1401 1401 1404 1407 1410 1414 1417 1423